Location: ???????
(55.7027°N, 37.3832°E)
Time: 20:32:18
(UTC+00:00)

NOSS 3-1 (A) - Pass Details

Date: 14 April 2026
Orbit: 613 x 1593 km, 63.4° (Epoch: 10 January)

Event Time Altitude Azimuth Distance (km) Brightness Sun altitude
Rises 19:04:03 0° 301° (WNW) 3,450 7.7 -17.9°
Reaches altitude 10° 19:06:21 10° 306° (NW) 2,632 6.9 -18.1°
Maximum altitude 19:12:31 59° 26° (NNE) 1,255 4.2 -18.6°
Enters shadow 19:18:50 16° 102° (ESE) 2,804 5.5 -19.1°
